Location: Del Amo
(33.8464°N, 118.2104°W)
Time: 15:25:18
(UTC+00:00)

Tiros 1 despin weight - Pass Details

Date: 15 September 2024
Orbit: 573 x 615 km, 48.2° (Epoch: 04 October)

Event Time Altitude Azimuth Distance (km) Brightness Sun altitude
Exits shadow 11:50:18 23° 328° (NNW) 1,309 ? -22.4°
Maximum altitude 11:50:44 24° 337° (NNW) 1,298 ? -22.3°
Drops below altitude 10° 11:54:26 10° 31° (NNE) 1,983 ? -21.6°
Sets 11:57:08 0° 46° (NE) 2,891 ? -21.0°
